Location: Arnolds Mill
(42.3415°N, 73.5951°W)
Time: 05:09:37
(UTC+00:00)

Oscar 11 - Pass Details

Date: 17 May 2026
Orbit: 591 x 601 km, 97.8° (Epoch: 11 June)

Event Time Altitude Azimuth Distance (km) Brightness Sun altitude
Rises 08:47:28 0° 8° (N) 2,860 11.2 -7.7°
Reaches altitude 10° 08:49:40 10° 4° (N) 1,951 10.2 -7.4°
Maximum altitude 08:53:49 56° 286° (WNW) 715 7.2 -6.7°
Drops below altitude 10° 08:57:56 10° 209° (SSW) 1,932 9.1 -6.1°
Enters shadow 08:59:24 - 206° (SSW) 2,534 9.7 -5.9°
